Wink, TX

5:05 AM CDT on October 20, 2017 (GMT -0500)
Winkler County

Weather History for KINK - March, 2013

Change the Weather History Date:

Saturday, March 9, 2013

  Actual Average Record
Temperature  
Mean Temperature 58 °F -  
Max Temperature 69 °F 71 °F 90 °F (1954)
Min Temperature 46 °F 40 °F 21 °F (1998)
Degree Days  
Heating Degree Days 8    
Growing Degree Days 8 (Base 50)    
Moisture  
Dew Point 34 °F    
Average Humidity 50    
Maximum Humidity 100    
Minimum Humidity 16    
Precipitation  
Precipitation 0.00 in - - ()
Sea Level Pressure  
Sea Level Pressure 29.72 in    
Wind  
Wind Speed 14 mph (West)    
Max Wind Speed 32 mph    
Max Gust Speed 41 mph    
Visibility 10 miles    
Events      
Averages and records for this station are not official NWS values.
T = Trace of Precipitation, MM = Missing Value Source: NWS Daily Summary

Daily Weather History Graph

Daily Weather History Graph

Search for Another Location

Airport or City:

Trip Planner

Search our weather history database for the weather conditions in past years. The results will help you decide how hot, cold, wet, or windy it might be!

Date:

Astronomy

Mar. 09, 2013 Rise Set
Actual Time 7:10 AM CST 6:56 PM CST
Civil Twilight 6:45 AM CST 7:21 PM CST
Nautical Twilight 6:17 AM CST 7:49 PM CST
Astronomical Twilight 5:49 AM CST 8:17 PM CST
Moon 5:29 AM CST (3/9) 5:05 PM CST (3/9)
Length of Visible Light 12h 35m
Length of Day
11h 46m
Waning Crescent, 5% of the Moon is Illuminated
Mar 9
Waning Crescent
Mar 11
New
Mar 19
First Quarter
Mar 27
Full
Apr 2
Last Quarter

Hourly Weather History & Observations

Time (CST) Temp. Dew Point Humidity Pressure Visibility Wind Dir Wind Speed Gust Speed Precip Events Conditions
12:53 AM 59.0 °F 54.0 °F 83% 29.68 in - SE 11.5 mph - N/A   Clear
1:53 AM 57.9 °F 53.1 °F 84% 29.67 in - SE 9.2 mph - N/A   Clear
2:53 AM 55.9 °F 53.1 °F 90% 29.65 in - SE 9.2 mph - N/A   Clear
3:53 AM 54.0 °F 52.0 °F 93% 29.65 in - SE 8.1 mph - N/A   Clear
4:53 AM 53.1 °F 52.0 °F 96% 29.65 in - SE 4.6 mph - N/A   Clear
5:53 AM 50.0 °F 50.0 °F 100% 29.67 in - East 3.5 mph - N/A   Clear
6:53 AM 46.9 °F 46.0 °F 97% 29.72 in - WSW 5.8 mph - N/A   Scattered Clouds
7:00 AM 48.2 °F 46.4 °F 93% 29.80 in - WSW 6.9 mph - N/A   Mostly Cloudy
7:12 AM 48.2 °F 46.4 °F 93% 29.81 in - West 11.5 mph - N/A   Scattered Clouds
7:53 AM 48.9 °F 48.0 °F 97% 29.75 in - NNW 5.8 mph - N/A   Clear
8:53 AM 57.9 °F 37.0 °F 46% 29.75 in - NW 15.0 mph - N/A   Clear
9:53 AM 61.0 °F 33.1 °F 35% 29.76 in 10.0 mi WNW 24.2 mph 28.8 mph N/A   Clear
10:53 AM 63.0 °F 30.9 °F 30% 29.76 in 10.0 mi WNW 19.6 mph 28.8 mph N/A   Clear
11:53 AM 64.9 °F 30.0 °F 27% 29.76 in 10.0 mi West 17.3 mph 23.0 mph N/A   Clear
12:53 PM 66.0 °F 28.9 °F 25% 29.73 in 10.0 mi West 26.5 mph 33.4 mph N/A   Mostly Cloudy
1:53 PM 66.9 °F 27.0 °F 22% 29.70 in 10.0 mi West 29.9 mph 39.1 mph N/A   Clear
2:53 PM 69.1 °F 26.1 °F 20% 29.67 in 10.0 mi West 32.2 mph 39.1 mph N/A   Clear
3:53 PM 66.9 °F 21.9 °F 18% 29.66 in 10.0 mi West 26.5 mph 41.4 mph N/A   Mostly Cloudy
4:53 PM 66.9 °F 21.0 °F 17% 29.64 in 10.0 mi WNW 27.6 mph 36.8 mph N/A   Overcast
5:53 PM 64.9 °F 18.0 °F 16% 29.64 in 10.0 mi WNW 27.6 mph 41.4 mph N/A   Overcast
6:53 PM 62.1 °F 16.0 °F 17% 29.67 in 10.0 mi NW 20.7 mph 32.2 mph N/A   Mostly Cloudy
7:53 PM 59.0 °F 15.1 °F 18% 29.70 in 10.0 mi NW 16.1 mph - N/A   Scattered Clouds
8:53 PM 57.9 °F 16.0 °F 19% 29.73 in 10.0 mi WNW 12.7 mph - N/A   Mostly Cloudy
9:53 PM 57.0 °F 14.0 °F 18% 29.78 in 10.0 mi NW 13.8 mph - N/A   Mostly Cloudy
10:53 PM 55.0 °F 19.9 °F 25% 29.79 in 10.0 mi NW 15.0 mph 24.2 mph N/A   Clear
11:53 PM 54.0 °F 21.0 °F 28% 29.82 in 10.0 mi WNW 18.4 mph - N/A   Clear